Location: La Pernelle
(49.6188°N, 1.2999°W)
Time: 16:16:59
(UTC+00:00)

Cosmos 2322 - Pass Details

Date: 12 June 2021
Orbit: 839 x 856 km, 71.0° (Epoch: 30 July)

Event Time Altitude Azimuth Distance (km) Brightness Sun altitude
Exits shadow 22:58:05 24° 178° (S) 1,692 4.7 -15.7°
Maximum altitude 23:01:22 53° 111° (ESE) 1,027 3.9 -15.8°
Drops below altitude 10° 23:06:51 10° 36° (NE) 2,468 6.7 -16.0°
Sets 23:09:21 0° 32° (NNE) 3,409 7.6 -16.1°
